Overview Statistics Trail Chart Weather Telemetry Raw packets
 

This is the latest recevied weather packets stored in our database for station/object F8KHU-13. If no packets are shown the sender has not sent any weather packets the latest 10 day(s).

<< 47 48 49 50 51 52 53 >>
Time Temp. Humidity Pressure Rain* Wind** Luminosity Snow
1788078341 17.78° C 30% 1012.9 hPa 0 mm - 0 W/m² -
1788078321 17.78° C 30% 1012.9 hPa 0 mm - 0 W/m² -
1788077464 17.78° C 30% 1012.9 hPa 0 mm - 0 W/m² -
1788077444 17.78° C 30% 1012.8 hPa 0 mm - 0 W/m² -
1788077424 17.78° C 30% 1012.9 hPa 0 mm - 0 W/m² -
1788076564 16.67° C 30% 1012.7 hPa 0 mm - 0 W/m² -
1788076544 17.78° C 31% 1012.8 hPa 0 mm - 0 W/m² -
1788075664 16.67° C 31% 1012.6 hPa 0 mm - 0 W/m² -
1788075644 16.67° C 31% 1012.5 hPa 0 mm - 0 W/m² -
1788075624 16.67° C 31% 1012.5 hPa 0 mm - 0 W/m² -
1788074744 16.67° C 32% 1012.5 hPa 0 mm - 0 W/m² -
1788073864 16.67° C 32% 1012.4 hPa 0 mm - 0 W/m² -
1788073824 15.56° C 33% 1012.4 hPa 0 mm - 0 W/m² -
1788072964 15.56° C 33% 1012.2 hPa 0 mm - 0 W/m² -
1788072925 15.56° C 37% 1012.2 hPa 0 mm - 0 W/m² -
1788072066 15.56° C 33% 1012 hPa 0 mm - 0 W/m² -
1788072045 15.56° C 33% 1012 hPa 0 mm - 0 W/m² -
1788072025 15.56° C 33% 1012 hPa 0 mm - 0 W/m² -
1788071165 15.56° C 36% 1011.9 hPa 0 mm - 0 W/m² -
1788071145 15.56° C 43% 1011.8 hPa 0 mm - 0 W/m² -
1788071125 15.56° C 44% 1011.9 hPa 0 mm - 0 W/m² -
1788070265 15.56° C 44% 1011.7 hPa 0 mm - 0 W/m² -
1788070245 15.56° C 44% 1011.7 hPa 0 mm - 0 W/m² -
1788070225 15.56° C 44% 1011.7 hPa 0 mm - 0 W/m² -
1788069365 15.56° C 44% 1011.4 hPa 0 mm - 0 W/m² -

* Rain latest hour (hover to see other rain measurements)
** Current wind speed in m/s (hover to see current wind gust speed)